Overview Statistics Trail Chart Weather Telemetry Raw packets
 

This is the latest recevied weather packets stored in our database for station/object HB9GPU-10. If no packets are shown the sender has not sent any weather packets the latest 10 day(s).

<< 14 15 16 17 18 19 20 >>
Time Temp. Humidity Pressure Rain* Wind** Luminosity Snow
1788316414 22.22° C 36% 1026.2 hPa - - - -
1788315514 22.78° C 36% 1026.2 hPa - - - -
1788314614 22.78° C 36% 1026.1 hPa - - - -
1788313713 22.78° C 35% 1026.1 hPa - - - -
1788312813 22.78° C 36% 1026.2 hPa - - - -
1788311913 22.78° C 36% 1026.2 hPa - - - -
1788311013 22.78° C 36% 1026.2 hPa - - - -
1788310113 22.78° C 36% 1026.2 hPa - - - -
1788309212 23.33° C 35% 1026.3 hPa - - - -
1788308312 22.78° C 36% 1026.2 hPa - - - -
1788307412 22.78° C 36% 1026.3 hPa - - - -
1788306512 23.33° C 35% 1026.3 hPa - - - -
1788305612 23.33° C 35% 1026.2 hPa - - - -
1788304712 23.33° C 35% 1026.2 hPa - - - -
1788303811 22.22° C 36% 1026.4 hPa - - - -
1788302911 23.33° C 35% 1026.4 hPa - - - -
1788302011 23.89° C 35% 1026.4 hPa - - - -
1788301111 23.89° C 34% 1026.4 hPa - - - -
1788300211 23.33° C 35% 1026.5 hPa - - - -
1788299311 23.33° C 35% 1026.5 hPa - - - -
1788298411 23.89° C 34% 1026.5 hPa - - - -
1788297510 23.89° C 33% 1026.4 hPa - - - -
1788296610 23.89° C 35% 1026.5 hPa - - - -
1788295710 23.33° C 34% 1026.5 hPa - - - -
1788294810 23.89° C 35% 1026.4 hPa - - - -

* Rain since midnight (hover to see other rain measurements)
** Current wind speed in m/s (hover to see current wind gust speed)